ATLAS 5 CENTAUR DEB, 46637

Orbit data source: Space-Track

ATLAS 5 CENTAUR DEB, 46637 is space debris in HEO originally from a launch on Wed, 17 Sep 2014 UTC launched from the Air Force Eastern Test Range (AFETR). Debris objects in space refer to the collection of defunct objects orbiting the Earth. Examples of debris include non-operational satellites, rocket bodies, and fragments generated from explosions, collisions, or faulty payload assembly.

Loading next visibility...
Identifier
46637, 2014-055CM
Orbit
HEO
Country
Flag of USUS
Related business
Flag of USUnited Launch Alliance/Lockheed Martin (US)
Manufacturer
Unknown
Mission
Spacecraft
Bus & Motor
Unknown
Mass
Unknown
Launch date (UTC)
2014-09-17 (12 years ago)
Launch vehicle
Unknown
Launch site
Air Force Eastern Test Range (AFETR)
Object type
Payload
Rocket body
Debris
Shape & HBR
Unknown shape, 1.1 m
Radar Cross Section
Medium (>0.1 m² and <1 m²)

Expand to show TLE details & history
Last TLE update: 3 weeks ago

TLE from 3 weeks ago
0 ATLAS 5 CENTAUR DEB
1 46637U 14055CM  26150.00333502  .00000059  00000-0  00000-0 0  9995
2 46637  21.1935  88.4092 5086243 264.6252  38.0052  1.94676734 40127
Epoch: 2026-05-30T00:04Z
TLE epoch observation values (Epoch: 2026-05-30T00:04:48.145Z)
Latitude
0.00004°
Longitude
-160.42807°
Altitude
14,711.821 km
Speed
4.805 km/s
True Right ascension
05h 53m 11s
True Declination
0° 00' 00"
Sunlit
Object was in daylight at epoch
Visualization orbit readout
Latitude
Unknown
Longitude
Unknown
Altitude
Unknown
Speed
Unknown
Apparent Right ascension
Unknown
Apparent Declination
Unknown
Sunlit
N/A
Visualization observer readout
Local Sidereal Time
21:40:05
Azimuth
Unknown
Elevation
Unknown
Doppler factor
Unknown
Orbital elements
Apogee altitude
34,498.328 km
Perigee altitude
6,935.782 km
Semi-major axis
27,095.192 km
Eccentricity
0.50862
Inclination
21.1935°
RAAN
88.4092°
Arg. of periapsis
264.6252°
True anomaly
95.46875°
Mean anomaly
38.0052°
Eccentric anomaly
64.25433°
Mean motion
0.48664 °/min
Orbital period
739.77 mins
BSTAR
0
Loading maneuver chart data...
Computing Atmospheric mass density...

Documentation

Showing up to 5 results
|